| time (UTC) | temp F | wind direction | speed MPH | gust MPH | rain 1hr in | rain 24hr in | rain mn in | humidity % | barometer mb |
| 20260509115113 | 76 | 220 | 1.0 | 4.0 | 0.00 | 0.00 | 0.00 | 95 | 1010.0 |
| 20260509114609 | 75 | 212 | 1.0 | 4.0 | 0.00 | 0.00 | 0.00 | 95 | 1009.9 |
| 20260509114605 | 76 | 196 | 1.0 | 4.0 | 0.00 | 0.00 | 0.00 | 94 | 1010.0 |
| 20260509114525 | 75 | 212 | 1.0 | 4.0 | 0.00 | 0.00 | 0.00 | 94 | 1009.9 |
| 20260509113807 | 76 | 220 | 1.0 | 4.0 | 0.00 | 0.00 | 0.00 | 94 | 1010.0 |
| 20260509113309 | 76 | 213 | 1.0 | 4.0 | 0.00 | 0.00 | 0.00 | 94 | 1010.0 |
| 20260509113026 | 75 | 242 | 1.0 | 4.0 | 0.00 | 0.00 | 0.00 | 94 | 1009.8 |
| 20260509112809 | 76 | 209 | 1.0 | 4.0 | 0.00 | 0.00 | 0.00 | 94 | 1009.9 |
| 20260509112600 | 76 | 219 | 1.0 | 4.0 | 0.00 | 0.00 | 0.00 | 94 | 1009.9 |
| 20260509111807 | 76 | 220 | 0.0 | 4.0 | 0.00 | 0.00 | 0.00 | 94 | 1009.9 |
| 20260509111511 | 75 | 214 | 0.0 | 2.0 | 0.00 | 0.00 | 0.00 | 94 | 1009.8 |
| 20260509111307 | 76 | 214 | 0.0 | 3.0 | 0.00 | 0.00 | 0.00 | 94 | 1009.9 |
| 20260509110854 | 76 | 225 | 0.0 | 2.0 | 0.00 | 0.00 | 0.00 | 94 | 1009.9 |
| 20260509110840 | 76 | 219 | 1.0 | 3.0 | 0.00 | 0.00 | 0.00 | 94 | 1009.9 |
| 20260509110015 | 75 | 205 | 0.0 | 2.0 | 0.00 | 0.00 | 0.00 | 94 | 1009.8 |
| 20260509105804 | 76 | 229 | 0.0 | 1.0 | 0.00 | 0.00 | 0.00 | 94 | 1009.9 |
| 20260509105559 | 76 | 268 | 0.0 | 2.0 | 0.00 | 0.00 | 0.00 | 94 | 1009.9 |
| 20260509105050 | 76 | 219 | 1.0 | 3.0 | 0.00 | 0.00 | 0.00 | 94 | 1009.9 |
| 20260509104554 | 75 | 219 | 0.0 | 3.0 | 0.00 | 0.00 | 0.00 | 94 | 1009.8 |
| 20260509104301 | 76 | 217 | 1.0 | 3.0 | 0.00 | 0.00 | 0.00 | 94 | 1009.7 |
| 20260509103801 | 76 | 187 | 1.0 | 3.0 | 0.00 | 0.00 | 0.00 | 94 | 1009.7 |
| 20260509103300 | 76 | 225 | 1.0 | 3.0 | 0.00 | 0.00 | 0.00 | 94 | 1009.7 |
| 20260509103034 | 75 | 213 | 0.0 | 4.0 | 0.00 | 0.00 | 0.00 | 94 | 1009.4 |
| 20260509102804 | 76 | 221 | 1.0 | 4.0 | 0.00 | 0.00 | 0.00 | 94 | 1009.5 |
| 20260509102300 | 76 | 223 | 0.0 | 4.0 | 0.00 | 0.00 | 0.00 | 94 | 1009.5 |
| 20260509101801 | 75 | 232 | 0.0 | 2.0 | 0.00 | 0.00 | 0.00 | 94 | 1009.5 |
| 20260509101532 | 75 | 226 | 0.0 | 2.0 | 0.00 | 0.00 | 0.00 | 94 | 1009.4 |
| 20260509101301 | 75 | 227 | 0.0 | 2.0 | 0.00 | 0.00 | 0.00 | 94 | 1009.5 |
| 20260509100759 | 75 | 223 | 0.0 | 2.0 | 0.00 | 0.00 | 0.00 | 94 | 1009.5 |
| 20260509100257 | 75 | 223 | 1.0 | 3.0 | 0.00 | 0.00 | 0.00 | 94 | 1009.5 |
| 20260509100036 | 75 | 223 | 0.0 | 3.0 | 0.00 | 0.00 | 0.00 | 94 | 1009.3 |
| 20260509095745 | 75 | 219 | 0.0 | 3.0 | 0.00 | 0.00 | 0.00 | 94 | 1009.4 |
| 20260509095244 | 75 | 214 | 0.0 | 2.0 | 0.00 | 0.00 | 0.00 | 94 | 1009.4 |
| 20260509094743 | 75 | 209 | 0.0 | 2.0 | 0.00 | 0.00 | 0.00 | 94 | 1009.4 |
| 20260509094518 | 75 | 159 | 0.0 | 2.0 | 0.00 | 0.00 | 0.00 | 94 | 1009.3 |
| 20260509094241 | 75 | 116 | 0.0 | 2.0 | 0.00 | 0.00 | 0.00 | 94 | 1009.4 |
| 20260509093835 | 75 | 129 | 1.0 | 3.0 | 0.00 | 0.00 | 0.00 | 94 | 1009.4 |
| 20260509093812 | 75 | 147 | 0.0 | 3.0 | 0.00 | 0.00 | 0.00 | 94 | 1009.4 |
| 20260509093014 | 75 | 111 | 0.0 | 2.0 | 0.00 | 0.00 | 0.00 | 94 | 1009.3 |
| 20260509092737 | 75 | 128 | 0.0 | 2.0 | 0.00 | 0.00 | 0.00 | 94 | 1009.4 |
| 20260509092537 | 75 | 119 | 0.0 | 1.0 | 0.00 | 0.00 | 0.00 | 94 | 1009.4 |
| 20260509091738 | 75 | 119 | 1.0 | 3.0 | 0.00 | 0.00 | 0.00 | 94 | 1009.4 |
| 20260509091507 | 74 | 119 | 0.0 | 3.0 | 0.00 | 0.00 | 0.00 | 94 | 1009.4 |
| 20260509091236 | 75 | 119 | 2.0 | 3.0 | 0.00 | 0.00 | 0.00 | 94 | 1009.5 |
| 20260509090733 | 75 | 115 | 1.0 | 2.0 | 0.00 | 0.00 | 0.00 | 94 | 1009.5 |
| 20260509090229 | 75 | 99 | 0.0 | 1.0 | 0.00 | 0.00 | 0.00 | 94 | 1009.5 |
| 20260509090106 | 74 | 99 | 0.0 | 1.0 | 0.00 | 0.00 | 0.00 | 94 | 1009.4 |
| 20260509085729 | 74 | 99 | 1.0 | 2.0 | 0.00 | 0.00 | 0.00 | 94 | 1009.7 |
| 20260509085229 | 74 | 99 | 1.0 | 2.0 | 0.00 | 0.00 | 0.00 | 94 | 1009.7 |
| 20260509084731 | 74 | 111 | 0.0 | 2.0 | 0.00 | 0.00 | 0.00 | 94 | 1009.7 |
| 20260509084557 | 74 | 98 | 0.0 | 0.0 | 0.00 | 0.00 | 0.00 | 94 | 1009.6 |
| 20260509084229 | 74 | 342 | 0.0 | 0.0 | 0.00 | 0.00 | 0.00 | 94 | 1009.8 |
| 20260509083729 | 74 | 342 | 0.0 | 0.0 | 0.00 | 0.00 | 0.00 | 94 | 1009.8 |
| 20260509083522 | 74 | 342 | 0.0 | 0.0 | 0.00 | 0.00 | 0.00 | 94 | 1009.8 |
| 20260509083033 | 74 | 342 | 0.0 | 0.0 | 0.00 | 0.00 | 0.00 | 94 | 1009.8 |
| 20260509082732 | 74 | 342 | 0.0 | 0.0 | 0.00 | 0.00 | 0.00 | 94 | 1009.9 |
| 20260509082519 | 74 | 342 | 0.0 | 0.0 | 0.00 | 0.00 | 0.00 | 94 | 1009.9 |
| 20260509081731 | 74 | 342 | 0.0 | 0.0 | 0.00 | 0.00 | 0.00 | 94 | 1009.9 |
| 20260509081537 | 73 | 342 | 0.0 | 0.0 | 0.00 | 0.00 | 0.00 | 94 | 1009.8 |
| 20260509081229 | 74 | 342 | 0.0 | 0.0 | 0.00 | 0.00 | 0.00 | 94 | 1009.9 |
| 20260509081022 | 74 | 342 | 0.0 | 1.0 | 0.00 | 0.00 | 0.00 | 94 | 1009.9 |
| 20260509080523 | 74 | 342 | 0.0 | 1.0 | 0.00 | 0.00 | 0.00 | 93 | 1009.9 |
| 20260509080004 | 73 | 342 | 0.0 | 1.0 | 0.00 | 0.00 | 0.00 | 93 | 1009.7 |
| 20260509075730 | 74 | 342 | 0.0 | 1.0 | 0.00 | 0.00 | 0.00 | 93 | 1009.8 |
| 20260509075230 | 74 | 332 | 0.0 | 1.0 | 0.00 | 0.00 | 0.00 | 93 | 1009.8 |
| 20260509074735 | 74 | 225 | 0.0 | 0.0 | 0.00 | 0.00 | 0.00 | 93 | 1009.8 |
| 20260509074503 | 73 | 225 | 0.0 | 0.0 | 0.00 | 0.00 | 0.00 | 93 | 1009.6 |
| 20260509074231 | 74 | 225 | 0.0 | 0.0 | 0.00 | 0.00 | 0.00 | 93 | 1009.7 |
| 20260509073730 | 74 | 225 | 0.0 | 0.0 | 0.00 | 0.00 | 0.00 | 93 | 1009.7 |
| 20260509073228 | 74 | 225 | 0.0 | 1.0 | 0.00 | 0.00 | 0.00 | 93 | 1009.7 |
| 20260509073018 | 74 | 225 | 0.0 | 1.0 | 0.00 | 0.00 | 0.00 | 93 | 1009.7 |
| 20260509073010 | 74 | 225 | 0.0 | 1.0 | 0.00 | 0.00 | 0.00 | 93 | 1009.6 |
| 20260509072520 | 74 | 225 | 0.0 | 0.0 | 0.00 | 0.00 | 0.00 | 93 | 1009.7 |
| 20260509071729 | 74 | 225 | 0.0 | 0.0 | 0.00 | 0.00 | 0.00 | 93 | 1009.7 |
| 20260509071504 | 74 | 225 | 0.0 | 0.0 | 0.00 | 0.00 | 0.00 | 93 | 1009.8 |
| 20260509071229 | 74 | 225 | 0.0 | 0.0 | 0.00 | 0.00 | 0.00 | 93 | 1009.9 |
| 20260509070728 | 74 | 225 | 0.0 | 0.0 | 0.00 | 0.00 | 0.00 | 93 | 1009.9 |
| 20260509070228 | 74 | 225 | 0.0 | 0.0 | 0.00 | 0.00 | 0.00 | 93 | 1009.9 |
| 20260509070106 | 74 | 225 | 0.0 | 0.0 | 0.00 | 0.00 | 0.00 | 93 | 1009.8 |
| 20260509065729 | 74 | 225 | 0.0 | 2.0 | 0.00 | 0.00 | 0.00 | 93 | 1009.9 |
| 20260509065230 | 75 | 225 | 0.0 | 2.0 | 0.00 | 0.00 | 0.00 | 93 | 1009.9 |
| 20260509064730 | 75 | 211 | 0.0 | 1.0 | 0.00 | 0.00 | 0.00 | 93 | 1009.9 |
| 20260509064544 | 74 | 211 | 0.0 | 1.0 | 0.00 | 0.00 | 0.00 | 93 | 1009.8 |
| 20260509064229 | 74 | 211 | 0.0 | 1.0 | 0.00 | 0.00 | 0.00 | 93 | 1009.9 |
| 20260509063730 | 74 | 213 | 0.0 | 1.0 | 0.00 | 0.00 | 0.00 | 93 | 1009.9 |
| 20260509063232 | 75 | 213 | 0.0 | 1.0 | 0.00 | 0.00 | 0.00 | 93 | 1009.9 |
| 20260509063031 | 74 | 213 | 0.0 | 1.0 | 0.00 | 0.00 | 0.00 | 93 | 1009.9 |
| 20260509062730 | 75 | 213 | 0.0 | 1.0 | 0.00 | 0.00 | 0.00 | 93 | 1010.0 |
| 20260509062230 | 75 | 213 | 0.0 | 2.0 | 0.00 | 0.00 | 0.00 | 93 | 1010.0 |
| 20260509061731 | 75 | 209 | 0.0 | 2.0 | 0.00 | 0.00 | 0.00 | 93 | 1010.0 |
| 20260509061531 | 74 | 192 | 0.0 | 2.0 | 0.00 | 0.00 | 0.00 | 93 | 1009.9 |
| 20260509061511 | 75 | 192 | 0.0 | 2.0 | 0.00 | 0.00 | 0.00 | 93 | 1010.0 |
| 20260509060730 | 75 | 213 | 0.0 | 2.0 | 0.00 | 0.00 | 0.00 | 92 | 1010.0 |
| 20260509060231 | 75 | 217 | 1.0 | 4.0 | 0.00 | 0.00 | 0.00 | 92 | 1010.0 |
| 20260509060031 | 74 | 225 | 0.0 | 4.0 | 0.00 | 0.00 | 0.00 | 92 | 1010.3 |
| 20260509055812 | 75 | 215 | 1.0 | 3.0 | 0.00 | 0.00 | 0.00 | 92 | 1010.4 |
| 20260509055801 | 75 | 213 | 1.0 | 4.0 | 0.00 | 0.00 | 0.00 | 92 | 1010.4 |
| 20260509054731 | 75 | 221 | 1.0 | 4.0 | 0.00 | 0.00 | 0.00 | 92 | 1010.4 |
| 20260509054541 | 74 | 265 | 0.0 | 4.0 | 0.00 | 0.00 | 0.00 | 92 | 1010.4 |
| 20260509054231 | 75 | 217 | 1.0 | 4.0 | 0.00 | 0.00 | 0.00 | 92 | 1010.5 |
| 20260509053729 | 75 | 225 | 1.0 | 4.0 | 0.00 | 0.00 | 0.00 | 92 | 1010.5 |
| 20260509053230 | 75 | 254 | 2.0 | 6.0 | 0.00 | 0.00 | 0.00 | 92 | 1010.5 |
| 20260509053110 | 75 | 230 | 1.0 | 6.0 | 0.00 | 0.00 | 0.00 | 92 | 1010.5 |
| 20260509052731 | 75 | 244 | 2.0 | 6.0 | 0.00 | 0.00 | 0.00 | 92 | 1010.6 |
| 20260509052231 | 75 | 268 | 1.0 | 5.0 | 0.00 | 0.00 | 0.00 | 92 | 1010.6 |
| 20260509052015 | 76 | 279 | 1.0 | 5.0 | 0.00 | 0.00 | 0.00 | 92 | 1010.6 |
| 20260509051537 | 75 | 221 | 0.0 | 5.0 | 0.00 | 0.00 | 0.00 | 92 | 1010.6 |
| 20260509051230 | 76 | 277 | 2.0 | 6.0 | 0.00 | 0.00 | 0.00 | 92 | 1010.7 |
| 20260509050730 | 76 | 238 | 2.0 | 6.0 | 0.00 | 0.00 | 0.00 | 92 | 1010.7 |
| 20260509050518 | 76 | 236 | 1.0 | 5.0 | 0.00 | 0.00 | 0.00 | 92 | 1010.7 |
| 20260509050040 | 76 | 228 | 1.0 | 5.0 | 0.00 | 0.00 | 0.00 | 92 | 1010.4 |
| 20260509045731 | 76 | 222 | 1.0 | 5.0 | 0.00 | 0.00 | 0.00 | 92 | 1010.6 |
| 20260509045313 | 76 | 215 | 1.0 | 3.0 | 0.00 | 0.00 | 0.00 | 91 | 1010.6 |
| 20260509045301 | 76 | 227 | 1.0 | 4.0 | 0.00 | 0.00 | 0.00 | 91 | 1010.6 |
| 20260509044532 | 76 | 218 | 0.0 | 2.0 | 0.00 | 0.00 | 0.00 | 91 | 1010.4 |
| 20260509044231 | 77 | 221 | 1.0 | 3.0 | 0.00 | 0.00 | 0.00 | 91 | 1010.5 |
| 20260509043730 | 77 | 221 | 0.0 | 3.0 | 0.00 | 0.00 | 0.00 | 91 | 1010.5 |
| 20260509043232 | 77 | 219 | 0.0 | 2.0 | 0.00 | 0.00 | 0.00 | 91 | 1010.5 |
| 20260509043030 | 77 | 219 | 0.0 | 2.0 | 0.00 | 0.00 | 0.00 | 91 | 1010.4 |
| 20260509042731 | 77 | 217 | 0.0 | 2.0 | 0.00 | 0.00 | 0.00 | 91 | 1010.5 |
| 20260509042315 | 77 | 181 | 0.0 | 2.0 | 0.00 | 0.00 | 0.00 | 91 | 1010.5 |
| 20260509041728 | 77 | 198 | 0.0 | 3.0 | 0.00 | 0.00 | 0.00 | 91 | 1010.5 |
| 20260509041515 | 77 | 198 | 0.0 | 3.0 | 0.00 | 0.00 | 0.00 | 91 | 1010.3 |
| 20260509041230 | 78 | 100 | 1.0 | 3.0 | 0.00 | 0.00 | 0.00 | 91 | 1010.5 |
| 20260509040729 | 78 | 224 | 1.0 | 3.0 | 0.00 | 0.00 | 0.00 | 91 | 1010.5 |
| 20260509040231 | 78 | 139 | 2.0 | 7.0 | 0.00 | 0.00 | 0.00 | 91 | 1010.5 |
| 20260509040003 | 77 | 120 | 1.0 | 6.0 | 0.00 | 0.00 | 0.00 | 91 | 1010.3 |
| 20260509035730 | 78 | 117 | 3.0 | 7.0 | 0.00 | 0.00 | 0.00 | 91 | 1010.5 |
| 20260509035230 | 78 | 123 | 3.0 | 7.0 | 0.00 | 0.00 | 0.00 | 91 | 1010.5 |
| 20260509034729 | 78 | 111 | 2.0 | 7.0 | 0.00 | 0.00 | 0.00 | 91 | 1010.5 |
| 20260509034502 | 78 | 118 | 2.0 | 4.0 | 0.00 | 0.00 | 0.00 | 91 | 1010.4 |
| 20260509034228 | 78 | 136 | 3.0 | 7.0 | 0.00 | 0.00 | 0.00 | 91 | 1010.5 |
| 20260509033731 | 78 | 119 | 3.0 | 7.0 | 0.00 | 0.00 | 0.00 | 91 | 1010.5 |
| 20260509033230 | 78 | 107 | 2.0 | 5.0 | 0.00 | 0.00 | 0.00 | 91 | 1010.5 |
| 20260509033047 | 78 | 143 | 1.0 | 4.0 | 0.00 | 0.00 | 0.00 | 91 | 1010.4 |
| 20260509032730 | 78 | 153 | 2.0 | 5.0 | 0.00 | 0.00 | 0.00 | 91 | 1010.5 |
| 20260509032230 | 78 | 115 | 2.0 | 5.0 | 0.00 | 0.00 | 0.00 | 91 | 1010.5 |
| 20260509031804 | 78 | 136 | 2.0 | 5.0 | 0.00 | 0.00 | 0.00 | 91 | 1010.6 |
| 20260509031753 | 78 | 140 | 2.0 | 5.0 | 0.00 | 0.00 | 0.00 | 91 | 1010.5 |
| 20260509030710 | 78 | 119 | 1.0 | 3.0 | 0.00 | 0.00 | 0.00 | 91 | 1010.6 |
| 20260509030211 | 78 | 117 | 1.0 | 3.0 | 0.00 | 0.00 | 0.00 | 91 | 1010.6 |
| 20260509030036 | 78 | 115 | 0.0 | 3.0 | 0.00 | 0.00 | 0.00 | 91 | 1010.4 |
| 20260509025708 | 78 | 121 | 2.0 | 3.0 | 0.00 | 0.00 | 0.00 | 91 | 1010.6 |
| 20260509025207 | 78 | 130 | 2.0 | 5.0 | 0.00 | 0.00 | 0.00 | 91 | 1010.6 |
| 20260509024706 | 78 | 117 | 2.0 | 5.0 | 0.00 | 0.00 | 0.00 | 91 | 1010.6 |
| 20260509024506 | 78 | 113 | 2.0 | 5.0 | 0.00 | 0.00 | 0.00 | 90 | 1010.4 |
| 20260509024203 | 78 | 126 | 2.0 | 4.0 | 0.00 | 0.00 | 0.00 | 91 | 1010.5 |
| 20260509023702 | 78 | 143 | 2.0 | 4.0 | 0.00 | 0.00 | 0.00 | 90 | 1010.5 |
| 20260509023202 | 78 | 117 | 2.0 | 4.0 | 0.00 | 0.00 | 0.00 | 91 | 1010.5 |
| 20260509023009 | 78 | 121 | 1.0 | 4.0 | 0.00 | 0.00 | 0.00 | 90 | 1010.4 |
| 20260509022704 | 78 | 130 | 2.0 | 4.0 | 0.00 | 0.00 | 0.00 | 90 | 1010.5 |
| 20260509022203 | 78 | 138 | 2.0 | 5.0 | 0.00 | 0.00 | 0.00 | 90 | 1010.5 |
| 20260509021703 | 79 | 107 | 2.0 | 5.0 | 0.00 | 0.00 | 0.00 | 90 | 1010.5 |
| 20260509021503 | 78 | 133 | 2.0 | 5.0 | 0.00 | 0.00 | 0.00 | 90 | 1010.3 |
| 20260509021203 | 79 | 121 | 2.0 | 4.0 | 0.00 | 0.00 | 0.00 | 90 | 1010.4 |
| 20260509020703 | 79 | 98 | 3.0 | 6.0 | 0.00 | 0.00 | 0.00 | 90 | 1010.4 |
| 20260509020204 | 79 | 119 | 3.0 | 6.0 | 0.00 | 0.00 | 0.00 | 90 | 1010.4 |
| 20260509020003 | 78 | 129 | 2.0 | 5.0 | 0.00 | 0.00 | 0.00 | 90 | 1010.0 |
| 20260509015702 | 79 | 115 | 3.0 | 5.0 | 0.00 | 0.00 | 0.00 | 90 | 1010.1 |
| 20260509015202 | 79 | 105 | 3.0 | 5.0 | 0.00 | 0.00 | 0.00 | 90 | 1010.1 |
| 20260509014702 | 79 | 123 | 3.0 | 5.0 | 0.00 | 0.00 | 0.00 | 90 | 1010.1 |
| 20260509014504 | 78 | 105 | 3.0 | 5.0 | 0.00 | 0.00 | 0.00 | 90 | 1010.0 |
| 20260509014456 | 79 | 123 | 3.0 | 5.0 | 0.00 | 0.00 | 0.00 | 90 | 1010.1 |
| 20260509013704 | 79 | 129 | 3.0 | 6.0 | 0.00 | 0.00 | 0.00 | 90 | 1010.1 |
| 20260509013204 | 79 | 118 | 3.0 | 6.0 | 0.00 | 0.00 | 0.00 | 90 | 1010.1 |
| 20260509013004 | 79 | 141 | 2.0 | 6.0 | 0.00 | 0.00 | 0.00 | 90 | 1009.9 |
| 20260509012702 | 79 | 123 | 3.0 | 6.0 | 0.00 | 0.00 | 0.00 | 90 | 1010.0 |
| 20260509012202 | 79 | 138 | 4.0 | 8.0 | 0.00 | 0.00 | 0.00 | 90 | 1010.0 |
| 20260509011703 | 79 | 120 | 4.0 | 8.0 | 0.00 | 0.00 | 0.00 | 90 | 1010.0 |
| 20260509011504 | 79 | 148 | 3.0 | 5.0 | 0.00 | 0.00 | 0.00 | 89 | 1009.9 |
| 20260509011203 | 79 | 129 | 3.0 | 6.0 | 0.00 | 0.00 | 0.00 | 89 | 1010.0 |
| 20260509010957 | 79 | 117 | 3.0 | 5.0 | 0.00 | 0.00 | 0.00 | 89 | 1010.0 |
| 20260509010202 | 79 | 108 | 3.0 | 5.0 | 0.00 | 0.00 | 0.00 | 89 | 1010.0 |
| 20260509010011 | 79 | 126 | 3.0 | 5.0 | 0.00 | 0.00 | 0.00 | 89 | 1009.8 |
| 20260509005702 | 80 | 97 | 2.0 | 5.0 | 0.00 | 0.00 | 0.00 | 89 | 1009.9 |
| 20260509005454 | 80 | 128 | 3.0 | 4.0 | 0.00 | 0.00 | 0.00 | 89 | 1009.9 |
| 20260509004948 | 80 | 135 | 3.0 | 6.0 | 0.00 | 0.00 | 0.00 | 89 | 1009.9 |
| 20260509004503 | 79 | 134 | 3.0 | 6.0 | 0.00 | 0.00 | 0.00 | 89 | 1009.8 |
| 20260509004203 | 80 | 99 | 3.0 | 6.0 | 0.00 | 0.00 | 0.00 | 89 | 1009.9 |
| 20260509003703 | 80 | 99 | 3.0 | 5.0 | 0.00 | 0.00 | 0.00 | 88 | 1009.9 |
| 20260509003204 | 80 | 102 | 3.0 | 5.0 | 0.00 | 0.00 | 0.00 | 88 | 1009.9 |
| 20260509003004 | 79 | 130 | 2.0 | 5.0 | 0.00 | 0.00 | 0.00 | 88 | 1009.4 |
| 20260509002702 | 80 | 101 | 3.0 | 7.0 | 0.00 | 0.00 | 0.00 | 88 | 1009.5 |
| 20260509002203 | 80 | 114 | 4.0 | 7.0 | 0.00 | 0.00 | 0.00 | 88 | 1009.5 |
| 20260509001704 | 80 | 114 | 3.0 | 7.0 | 0.00 | 0.00 | 0.00 | 87 | 1009.5 |
| 20260509001503 | 80 | 103 | 2.0 | 4.0 | 0.00 | 0.00 | 0.00 | 87 | 1009.3 |
| 20260509001455 | 80 | 122 | 3.0 | 6.0 | 0.00 | 0.00 | 0.00 | 87 | 1009.4 |
| 20260509000709 | 81 | 127 | 4.0 | 7.0 | 0.00 | 0.00 | 0.00 | 87 | 1009.4 |
| 20260509000207 | 81 | 88 | 4.0 | 8.0 | 0.00 | 0.00 | 0.00 | 86 | 1009.4 |
| 20260509000007 | 80 | 102 | 4.0 | 8.0 | 0.00 | 0.00 | 0.00 | 86 | 1008.9 |
| 20260508235704 | 81 | 148 | 5.0 | 8.0 | 0.00 | 0.00 | 0.00 | 86 | 1009.1 |
| 20260508235203 | 81 | 111 | 5.0 | 8.0 | 0.00 | 0.00 | 0.00 | 86 | 1009.1 |
| 20260508234703 | 81 | 149 | 4.0 | 7.0 | 0.00 | 0.00 | 0.00 | 85 | 1009.1 |
| 20260508234505 | 81 | 115 | 3.0 | 8.0 | 0.00 | 0.00 | 0.00 | 85 | 1008.9 |
| 20260508234203 | 81 | 116 | 5.0 | 8.0 | 0.00 | 0.00 | 0.00 | 85 | 1009.0 |
| 20260508233950 | 81 | 113 | 5.0 | 8.0 | 0.00 | 0.00 | 0.00 | 84 | 1009.0 |
| 20260508233202 | 81 | 107 | 5.0 | 8.0 | 0.00 | 0.00 | 0.00 | 84 | 1009.0 |
| 20260508233004 | 81 | 115 | 4.0 | 8.0 | 0.00 | 0.00 | 0.00 | 84 | 1008.8 |
| 20260508232703 | 82 | 109 | 4.0 | 8.0 | 0.00 | 0.00 | 0.00 | 84 | 1008.9 |
| 20260508232203 | 82 | 113 | 5.0 | 9.0 | 0.00 | 0.00 | 0.00 | 83 | 1008.9 |
| 20260508231945 | 82 | 110 | 7.0 | 11.0 | 0.00 | 0.00 | 0.00 | 83 | 1008.9 |
| 20260508231503 | 81 | 88 | 6.0 | 11.0 | 0.00 | 0.00 | 0.00 | 83 | 1008.8 |
| 20260508231204 | 82 | 104 | 7.0 | 13.0 | 0.00 | 0.00 | 0.00 | 82 | 1008.9 |
| 20260508230950 | 82 | 104 | 7.0 | 13.0 | 0.00 | 0.00 | 0.00 | 82 | 1008.9 |
| 20260508230204 | 82 | 91 | 6.0 | 9.0 | 0.00 | 0.00 | 0.00 | 82 | 1008.9 |
| 20260508230008 | 82 | 82 | 6.0 | 9.0 | 0.00 | 0.00 | 0.00 | 82 | 1008.7 |
| 20260508225704 | 82 | 99 | 7.0 | 14.0 | 0.00 | 0.00 | 0.00 | 81 | 1008.8 |
| 20260508225203 | 82 | 117 | 8.0 | 14.0 | 0.00 | 0.00 | 0.00 | 81 | 1008.8 |
| 20260508224704 | 83 | 123 | 8.0 | 13.0 | 0.00 | 0.00 | 0.00 | 81 | 1008.8 |
| 20260508224502 | 82 | 91 | 8.0 | 13.0 | 0.00 | 0.00 | 0.00 | 81 | 1008.6 |
| 20260508224204 | 83 | 126 | 8.0 | 13.0 | 0.00 | 0.00 | 0.00 | 82 | 1008.7 |
| 20260508223702 | 83 | 87 | 7.0 | 13.0 | 0.00 | 0.00 | 0.00 | 81 | 1008.7 |
| 20260508223450 | 83 | 107 | 7.0 | 11.0 | 0.00 | 0.00 | 0.00 | 80 | 1008.7 |
| 20260508223003 | 83 | 88 | 5.0 | 10.0 | 0.00 | 0.00 | 0.00 | 81 | 1008.5 |
| 20260508222702 | 83 | 79 | 8.0 | 11.0 | 0.00 | 0.00 | 0.00 | 81 | 1008.6 |
| 20260508222203 | 83 | 82 | 8.0 | 15.0 | 0.00 | 0.00 | 0.00 | 80 | 1008.6 |
| 20260508221957 | 83 | 103 | 8.0 | 15.0 | 0.00 | 0.00 | 0.00 | 80 | 1008.6 |
| 20260508221506 | 83 | 123 | 9.0 | 15.0 | 0.00 | 0.00 | 0.00 | 79 | 1008.7 |
| 20260508221204 | 83 | 113 | 8.0 | 13.0 | 0.00 | 0.00 | 0.00 | 79 | 1008.8 |
| 20260508220951 | 83 | 84 | 8.0 | 15.0 | 0.00 | 0.00 | 0.00 | 77 | 1008.8 |
| 20260508220203 | 83 | 83 | 8.0 | 15.0 | 0.00 | 0.00 | 0.00 | 79 | 1008.8 |
| 20260508220004 | 83 | 82 | 7.0 | 14.0 | 0.00 | 0.00 | 0.00 | 79 | 1008.8 |
| 20260508215702 | 84 | 103 | 7.0 | 14.0 | 0.00 | 0.00 | 0.00 | 79 | 1008.9 |
| 20260508215202 | 84 | 134 | 8.0 | 14.0 | 0.00 | 0.00 | 0.00 | 80 | 1008.9 |
| 20260508214703 | 84 | 87 | 8.0 | 14.0 | 0.00 | 0.00 | 0.00 | 79 | 1008.9 |
| 20260508214505 | 83 | 105 | 6.0 | 14.0 | 0.00 | 0.00 | 0.00 | 78 | 1008.8 |
| 20260508214202 | 83 | 129 | 8.0 | 14.0 | 0.00 | 0.00 | 0.00 | 79 | 1008.9 |
| 20260508213703 | 84 | 109 | 8.0 | 14.0 | 0.00 | 0.00 | 0.00 | 80 | 1008.9 |
| 20260508213158 | 83 | 116 | 8.0 | 14.0 | 0.00 | 0.00 | 0.00 | 79 | 1008.9 |
| 20260508213004 | 83 | 122 | 7.0 | 14.0 | 0.00 | 0.00 | 0.00 | 80 | 1008.8 |
| 20260508212652 | 84 | 132 | 8.0 | 14.0 | 0.00 | 0.00 | 0.00 | 80 | 1008.9 |
| 20260508212153 | 84 | 119 | 8.0 | 14.0 | 0.00 | 0.00 | 0.00 | 80 | 1008.9 |
| 20260508211653 | 84 | 74 | 8.0 | 14.0 | 0.00 | 0.00 | 0.00 | 79 | 1008.9 |
| 20260508211549 | 83 | 101 | 7.0 | 13.0 | 0.00 | 0.00 | 0.00 | 79 | 1008.8 |
| 20260508211153 | 84 | 118 | 8.0 | 13.0 | 0.00 | 0.00 | 0.00 | 79 | 1008.9 |
| 20260508210652 | 84 | 117 | 9.0 | 14.0 | 0.00 | 0.00 | 0.00 | 80 | 1008.9 |
| 20260508210153 | 84 | 88 | 9.0 | 14.0 | 0.00 | 0.00 | 0.00 | 79 | 1008.9 |
| 20260508210040 | 83 | 86 | 8.0 | 13.0 | 0.00 | 0.00 | 0.00 | 79 | 1009.2 |
| 20260508205654 | 84 | 104 | 9.0 | 14.0 | 0.00 | 0.00 | 0.00 | 78 | 1009.3 |
| 20260508205145 | 84 | 78 | 9.0 | 17.0 | 0.00 | 0.00 | 0.00 | 78 | 1009.3 |
| 20260508204938 | 84 | 86 | 9.0 | 17.0 | 0.00 | 0.00 | 0.00 | 77 | 1009.3 |
| 20260508204531 | 84 | 109 | 8.0 | 15.0 | 0.00 | 0.00 | 0.00 | 78 | 1009.2 |
| 20260508204144 | 84 | 102 | 8.0 | 15.0 | 0.00 | 0.00 | 0.00 | 78 | 1009.3 |
| 20260508203934 | 84 | 148 | 8.0 | 15.0 | 0.00 | 0.00 | 0.00 | 77 | 1009.3 |
| 20260508203435 | 84 | 87 | 9.0 | 15.0 | 0.00 | 0.00 | 0.00 | 78 | 1009.3 |
| 20260508203017 | 83 | 106 | 11.0 | 15.0 | 0.00 | 0.00 | 0.00 | 77 | 1009.3 |
| 20260508202646 | 84 | 125 | 8.0 | 14.0 | 0.00 | 0.00 | 0.00 | 78 | 1009.4 |
| 20260508202146 | 84 | 90 | 8.0 | 16.0 | 0.00 | 0.00 | 0.00 | 78 | 1009.4 |
| 20260508201645 | 84 | 82 | 8.0 | 16.0 | 0.00 | 0.00 | 0.00 | 78 | 1009.4 |
| 20260508201505 | 84 | 85 | 7.0 | 13.0 | 0.00 | 0.00 | 0.00 | 77 | 1009.3 |
| 20260508201145 | 84 | 98 | 9.0 | 17.0 | 0.00 | 0.00 | 0.00 | 79 | 1009.5 |
| 20260508200639 | 84 | 103 | 7.0 | 17.0 | 0.00 | 0.00 | 0.00 | 78 | 1009.5 |
| 20260508200430 | 84 | 103 | 6.0 | 13.0 | 0.00 | 0.00 | 0.00 | 78 | 1009.5 |
| 20260508200059 | 84 | 75 | 5.0 | 12.0 | 0.00 | 0.00 | 0.00 | 78 | 1009.3 |
| 20260508195637 | 84 | 113 | 7.0 | 13.0 | 0.00 | 0.00 | 0.00 | 77 | 1009.9 |
| 20260508195138 | 84 | 82 | 8.0 | 16.0 | 0.00 | 0.00 | 0.00 | 78 | 1009.9 |
| 20260508194639 | 84 | 79 | 10.0 | 16.0 | 0.00 | 0.00 | 0.00 | 78 | 1009.9 |
| 20260508194531 | 83 | 96 | 9.0 | 15.0 | 0.00 | 0.00 | 0.00 | 79 | 1010.0 |
| 20260508194136 | 84 | 93 | 9.0 | 15.0 | 0.00 | 0.00 | 0.00 | 78 | 1010.1 |
| 20260508193936 | 84 | 109 | 8.0 | 15.0 | 0.00 | 0.00 | 0.00 | 76 | 1010.1 |
| 20260508193136 | 84 | 130 | 7.0 | 15.0 | 0.00 | 0.00 | 0.00 | 77 | 1010.1 |
| 20260508193027 | 84 | 117 | 8.0 | 15.0 | 0.00 | 0.00 | 0.00 | 77 | 1010.1 |
| 20260508192636 | 84 | 122 | 7.0 | 13.0 | 0.00 | 0.00 | 0.00 | 78 | 1010.2 |
| 20260508192136 | 84 | 110 | 5.0 | 13.0 | 0.00 | 0.00 | 0.00 | 77 | 1010.2 |
| 20260508191638 | 84 | 59 | 5.0 | 14.0 | 0.00 | 0.00 | 0.00 | 77 | 1010.2 |
| 20260508191521 | 84 | 94 | 3.0 | 14.0 | 0.00 | 0.00 | 0.00 | 77 | 1010.4 |
| 20260508191138 | 84 | 96 | 8.0 | 15.0 | 0.00 | 0.00 | 0.00 | 78 | 1010.5 |
| 20260508190930 | 84 | 73 | 9.0 | 15.0 | 0.00 | 0.00 | 0.00 | 78 | 1010.5 |
| 20260508190130 | 84 | 88 | 7.0 | 15.0 | 0.00 | 0.00 | 0.00 | 77 | 1010.5 |
| 20260508190006 | 83 | 111 | 8.0 | 15.0 | 0.00 | 0.00 | 0.00 | 77 | 1010.6 |
| 20260508185629 | 84 | 78 | 6.0 | 15.0 | 0.00 | 0.00 | 0.00 | 78 | 1010.8 |
| 20260508185131 | 84 | 83 | 6.0 | 15.0 | 0.00 | 0.00 | 0.00 | 78 | 1010.8 |
| 20260508184629 | 84 | 85 | 8.0 | 16.0 | 0.00 | 0.00 | 0.00 | 79 | 1010.8 |
| 20260508184505 | 83 | 98 | 6.0 | 16.0 | 0.00 | 0.00 | 0.00 | 78 | 1010.8 |
| 20260508184128 | 84 | 88 | 7.0 | 16.0 | 0.00 | 0.00 | 0.00 | 77 | 1011.0 |
| 20260508183927 | 84 | 78 | 6.0 | 14.0 | 0.00 | 0.00 | 0.00 | 78 | 1011.0 |
| 20260508183130 | 84 | 74 | 5.0 | 13.0 | 0.00 | 0.00 | 0.00 | 77 | 1011.0 |
| 20260508183006 | 84 | 55 | 3.0 | 12.0 | 0.00 | 0.00 | 0.00 | 78 | 1010.8 |
| 20260508182631 | 84 | 80 | 7.0 | 14.0 | 0.00 | 0.00 | 0.00 | 77 | 1011.0 |
| 20260508182130 | 84 | 65 | 6.0 | 14.0 | 0.00 | 0.00 | 0.00 | 77 | 1011.0 |
| 20260508181629 | 84 | 74 | 4.0 | 14.0 | 0.00 | 0.00 | 0.00 | 77 | 1011.0 |
| 20260508181504 | 83 | 71 | 5.0 | 13.0 | 0.00 | 0.00 | 0.00 | 77 | 1010.9 |
| 20260508181131 | 84 | 86 | 4.0 | 14.0 | 0.00 | 0.00 | 0.00 | 77 | 1011.0 |
| 20260508180627 | 84 | 71 | 6.0 | 14.0 | 0.00 | 0.00 | 0.00 | 76 | 1011.0 |
| 20260508180420 | 84 | 78 | 6.0 | 13.0 | 0.00 | 0.00 | 0.00 | 75 | 1011.0 |
| 20260508180003 | 84 | 81 | 5.0 | 12.0 | 0.00 | 0.00 | 0.00 | 76 | 1010.9 |
| 20260508175615 | 85 | 95 | 6.0 | 16.0 | 0.00 | 0.00 | 0.00 | 76 | 1011.1 |
| 20260508175116 | 85 | 71 | 4.0 | 16.0 | 0.00 | 0.00 | 0.00 | 74 | 1011.1 |
| 20260508174613 | 85 | 48 | 4.0 | 10.0 | 0.00 | 0.00 | 0.00 | 75 | 1011.1 |
| 20260508174510 | 85 | 44 | 3.0 | 10.0 | 0.00 | 0.00 | 0.00 | 74 | 1011.1 |
| 20260508174111 | 85 | 90 | 5.0 | 11.0 | 0.00 | 0.00 | 0.00 | 75 | 1011.3 |
| 20260508173609 | 85 | 74 | 7.0 | 13.0 | 0.00 | 0.00 | 0.00 | 75 | 1011.3 |
| 20260508173107 | 85 | 101 | 6.0 | 13.0 | 0.00 | 0.00 | 0.00 | 75 | 1011.3 |
| 20260508173056 | 85 | 104 | 8.0 | 13.0 | 0.00 | 0.00 | 0.00 | 75 | 1011.1 |
| 20260508172608 | 85 | 61 | 5.0 | 12.0 | 0.00 | 0.00 | 0.00 | 75 | 1011.5 |
| 20260508172106 | 85 | 86 | 4.0 | 10.0 | 0.00 | 0.00 | 0.00 | 74 | 1011.5 |
| 20260508171607 | 85 | 90 | 3.0 | 9.0 | 0.00 | 0.00 | 0.00 | 74 | 1011.5 |
| 20260508171544 | 85 | 76 | 2.0 | 9.0 | 0.00 | 0.00 | 0.00 | 75 | 1011.4 |
| 20260508171105 | 86 | 69 | 3.0 | 9.0 | 0.00 | 0.00 | 0.00 | 73 | 1011.5 |
| 20260508170602 | 86 | 101 | 4.0 | 8.0 | 0.00 | 0.00 | 0.00 | 72 | 1011.5 |
| 20260508170036 | 87 | 30 | 4.0 | 7.0 | 0.00 | 0.00 | 0.00 | 72 | 1011.6 |
| 20260508165602 | 88 | 64 | 2.0 | 5.0 | 0.00 | 0.00 | 0.00 | 70 | 1011.7 |
| 20260508165401 | 88 | 248 | 3.0 | 8.0 | 0.00 | 0.00 | 0.00 | 70 | 1011.7 |
| 20260508164603 | 87 | 15 | 3.0 | 8.0 | 0.00 | 0.00 | 0.00 | 71 | 1011.7 |
| 20260508164516 | 87 | 340 | 3.0 | 8.0 | 0.00 | 0.00 | 0.00 | 71 | 1011.8 |
| 20260508164101 | 87 | 18 | 2.0 | 8.0 | 0.00 | 0.00 | 0.00 | 72 | 1011.9 |
| 20260508163602 | 86 | 291 | 3.0 | 8.0 | 0.00 | 0.00 | 0.00 | 73 | 1011.9 |
| 20260508163104 | 86 | 330 | 3.0 | 8.0 | 0.00 | 0.00 | 0.00 | 73 | 1011.9 |
| 20260508163007 | 85 | 45 | 3.0 | 8.0 | 0.00 | 0.00 | 0.00 | 73 | 1012.0 |
| 20260508162604 | 86 | 78 | 2.0 | 6.0 | 0.00 | 0.00 | 0.00 | 74 | 1012.1 |
| 20260508162102 | 86 | 94 | 2.0 | 6.0 | 0.00 | 0.00 | 0.00 | 71 | 1012.1 |
| 20260508161604 | 86 | 13 | 2.0 | 6.0 | 0.00 | 0.00 | 0.00 | 72 | 1012.1 |
| 20260508161505 | 86 | 22 | 2.0 | 6.0 | 0.00 | 0.00 | 0.00 | 72 | 1012.2 |
| 20260508161103 | 86 | 323 | 2.0 | 6.0 | 0.00 | 0.00 | 0.00 | 72 | 1012.3 |
| 20260508160602 | 86 | 0 | 2.0 | 9.0 | 0.00 | 0.00 | 0.00 | 72 | 1012.3 |
| 20260508160052 | 86 | 88 | 3.0 | 9.0 | 0.00 | 0.00 | 0.00 | 73 | 1012.2 |
| 20260508155858 | 87 | 110 | 3.0 | 7.0 | 0.00 | 0.00 | 0.00 | 72 | 1012.4 |
| 20260508155203 | 88 | 81 | 2.0 | 6.0 | 0.00 | 0.00 | 0.00 | 70 | 1012.4 |
| 20260508155137 | 87 | 30 | 2.0 | 7.0 | 0.00 | 0.00 | 0.00 | 72 | 1012.4 |
| 20260508154541 | 87 | 101 | 2.0 | 5.0 | 0.00 | 0.00 | 0.00 | 70 | 1012.4 |
| 20260508154101 | 87 | 0 | 2.0 | 9.0 | 0.00 | 0.00 | 0.00 | 71 | 1012.5 |
| 20260508153600 | 87 | 296 | 2.0 | 9.0 | 0.00 | 0.00 | 0.00 | 71 | 1012.5 |
| 20260508153101 | 87 | 15 | 2.0 | 8.0 | 0.00 | 0.00 | 0.00 | 73 | 1012.5 |
| 20260508153032 | 87 | 269 | 1.0 | 6.0 | 0.00 | 0.00 | 0.00 | 73 | 1012.4 |
| 20260508152601 | 87 | 306 | 1.0 | 5.0 | 0.00 | 0.00 | 0.00 | 71 | 1012.6 |
| 20260508152102 | 86 | 113 | 2.0 | 6.0 | 0.00 | 0.00 | 0.00 | 73 | 1012.6 |
| 20260508151601 | 86 | 324 | 2.0 | 6.0 | 0.00 | 0.00 | 0.00 | 72 | 1012.6 |
| 20260508151535 | 86 | 350 | 3.0 | 6.0 | 0.00 | 0.00 | 0.00 | 72 | 1012.5 |
| 20260508151102 | 86 | 327 | 2.0 | 6.0 | 0.00 | 0.00 | 0.00 | 73 | 1012.6 |
| 20260508150602 | 85 | 38 | 2.0 | 7.0 | 0.00 | 0.00 | 0.00 | 74 | 1012.6 |
| 20260508150016 | 85 | 329 | 1.0 | 7.0 | 0.00 | 0.00 | 0.00 | 73 | 1012.4 |
| 20260508145854 | 85 | 45 | 2.0 | 7.0 | 0.00 | 0.00 | 0.00 | 74 | 1012.6 |
| 20260508145101 | 85 | 319 | 2.0 | 6.0 | 0.00 | 0.00 | 0.00 | 75 | 1012.6 |
| 20260508144601 | 85 | 163 | 2.0 | 7.0 | 0.00 | 0.00 | 0.00 | 76 | 1012.6 |
| 20260508144515 | 84 | 48 | 2.0 | 7.0 | 0.00 | 0.00 | 0.00 | 77 | 1012.5 |
| 20260508144102 | 84 | 292 | 3.0 | 7.0 | 0.00 | 0.00 | 0.00 | 76 | 1012.6 |
| 20260508143600 | 84 | 296 | 3.0 | 6.0 | 0.00 | 0.00 | 0.00 | 76 | 1012.6 |
| 20260508143102 | 84 | 315 | 2.0 | 7.0 | 0.00 | 0.00 | 0.00 | 79 | 1012.6 |
| 20260508143002 | 83 | 291 | 1.0 | 7.0 | 0.00 | 0.00 | 0.00 | 78 | 1012.4 |
| 20260508142609 | 83 | 30 | 3.0 | 7.0 | 0.00 | 0.00 | 0.00 | 78 | 1012.6 |
| 20260508142059 | 83 | 25 | 3.0 | 11.0 | 0.00 | 0.00 | 0.00 | 79 | 1012.6 |
| 20260508141605 | 82 | 348 | 3.0 | 11.0 | 0.00 | 0.00 | 0.00 | 80 | 1012.4 |
| 20260508141541 | 83 | 327 | 2.0 | 11.0 | 0.00 | 0.00 | 0.00 | 80 | 1012.6 |
| 20260508141029 | 82 | 90 | 2.0 | 6.0 | 0.00 | 0.00 | 0.00 | 81 | 1012.6 |
| 20260508140531 | 82 | 250 | 3.0 | 6.0 | 0.00 | 0.00 | 0.00 | 81 | 1012.6 |
| 20260508140037 | 81 | 277 | 2.0 | 6.0 | 0.00 | 0.00 | 0.00 | 82 | 1012.4 |
| 20260508140032 | 81 | 239 | 2.0 | 6.0 | 0.00 | 0.00 | 0.00 | 82 | 1012.6 |
| 20260508135826 | 81 | 345 | 2.0 | 4.0 | 0.00 | 0.00 | 0.00 | 83 | 1012.6 |
| 20260508135030 | 81 | 22 | 2.0 | 4.0 | 0.00 | 0.00 | 0.00 | 83 | 1012.6 |
| 20260508134826 | 80 | 323 | 1.0 | 4.0 | 0.00 | 0.00 | 0.00 | 83 | 1012.5 |
| 20260508134031 | 80 | 269 | 1.0 | 5.0 | 0.00 | 0.00 | 0.00 | 84 | 1012.5 |
| 20260508133537 | 79 | 236 | 1.0 | 5.0 | 0.00 | 0.00 | 0.00 | 85 | 1012.5 |
| 20260508133046 | 78 | 350 | 1.0 | 3.0 | 0.00 | 0.00 | 0.00 | 85 | 1012.4 |
| 20260508133036 | 79 | 350 | 1.0 | 3.0 | 0.00 | 0.00 | 0.00 | 85 | 1012.5 |
| 20260508132818 | 79 | 284 | 1.0 | 3.0 | 0.00 | 0.00 | 0.00 | 85 | 1012.5 |
| 20260508132320 | 78 | 265 | 1.0 | 4.0 | 0.00 | 0.00 | 0.00 | 86 | 1012.5 |
| 20260508131545 | 77 | 261 | 1.0 | 4.0 | 0.00 | 0.00 | 0.00 | 87 | 1012.1 |
| 20260508131531 | 78 | 261 | 1.0 | 4.0 | 0.00 | 0.00 | 0.00 | 87 | 1012.2 |
| 20260508131029 | 77 | 257 | 1.0 | 2.0 | 0.00 | 0.00 | 0.00 | 87 | 1012.2 |
| 20260508130532 | 77 | 277 | 1.0 | 2.0 | 0.00 | 0.00 | 0.00 | 87 | 1012.2 |
| 20260508130317 | 76 | 235 | 0.0 | 2.0 | 0.00 | 0.00 | 0.00 | 87 | 1012.5 |
| 20260508125532 | 76 | 255 | 0.0 | 2.0 | 0.00 | 0.00 | 0.00 | 88 | 1012.5 |
| 20260508125029 | 76 | 281 | 0.0 | 2.0 | 0.00 | 0.00 | 0.00 | 88 | 1012.5 |
| 20260508124529 | 75 | 275 | 0.0 | 1.0 | 0.00 | 0.00 | 0.00 | 88 | 1012.4 |
| 20260508124513 | 75 | 275 | 0.0 | 1.0 | 0.00 | 0.00 | 0.00 | 88 | 1012.3 |
| 20260508124028 | 75 | 257 | 0.0 | 3.0 | 0.00 | 0.00 | 0.00 | 89 | 1012.4 |
| 20260508123623 | 74 | 265 | 1.0 | 2.0 | 0.00 | 0.00 | 0.00 | 89 | 1012.2 |
| 20260508123606 | 74 | 252 | 0.0 | 3.0 | 0.00 | 0.00 | 0.00 | 89 | 1012.4 |
| 20260508123007 | 73 | 265 | 0.0 | 2.0 | 0.00 | 0.00 | 0.00 | 89 | 1012.1 |
| 20260508122531 | 73 | 277 | 1.0 | 3.0 | 0.00 | 0.00 | 0.00 | 89 | 1012.2 |
| 20260508122031 | 73 | 234 | 0.0 | 3.0 | 0.00 | 0.00 | 0.00 | 89 | 1012.2 |
| 20260508121528 | 73 | 270 | 1.0 | 2.0 | 0.00 | 0.00 | 0.00 | 89 | 1012.0 |
| 20260508121503 | 72 | 274 | 1.0 | 2.0 | 0.00 | 0.00 | 0.00 | 89 | 1011.9 |
| 20260508121029 | 72 | 287 | 0.0 | 3.0 | 0.00 | 0.00 | 0.00 | 89 | 1012.0 |
| 20260508120529 | 72 | 286 | 0.0 | 3.0 | 0.00 | 0.00 | 0.00 | 90 | 1012.0 |
| 20260508120031 | 71 | 257 | 0.0 | 1.0 | 0.00 | 0.00 | 0.00 | 90 | 1011.9 |
| 20260508120003 | 71 | 257 | 0.0 | 1.0 | 0.00 | 0.00 | 0.00 | 90 | 1011.8 |
| 20260508115819 | 71 | 257 | 0.0 | 1.0 | 0.00 | 0.00 | 0.00 | 91 | 1011.9 |